Owen Roberts, Cayman Islands

4:23 AM EST on February 18, 2018 (GMT -0500)
Roberts International

Weather History for MWCR - January, 2014

Change the Weather History Date:

Thursday, January 16, 2014

  Actual Average Record
Temperature  
Mean Temperature 74 °F -  
Max Temperature 79 °F 81 °F 85 °F (2016)
Min Temperature 70 °F 73 °F 68 °F (1999)
Cooling Degree Days 10    
Growing Degree Days 24 (Base 50)    
Moisture  
Dew Point 66 °F    
Average Humidity 68    
Maximum Humidity 83    
Minimum Humidity 51    
Precipitation  
Precipitation 0.00 in - - ()
Sea Level Pressure  
Sea Level Pressure 30.00 in    
Wind  
Wind Speed 11 mph ()    
Max Wind Speed 14 mph    
Max Gust Speed -    
Visibility 6.2 miles    
Events Rain    
Averages and records for this station are not official NWS values.
T = Trace of Precipitation, MM = Missing Value Source: Averaged Metar Reports

Daily Weather History Graph

Daily Weather History Graph

Search for Another Location

Airport or City:

Trip Planner

Search our weather history database for the weather conditions in past years. The results will help you decide how hot, cold, wet, or windy it might be!

Date:

Astronomy

Jan. 16, 2014 Rise Set
Actual Time 7:02 AM EST 6:08 PM EST
Civil Twilight 6:38 AM EST 6:32 PM EST
Nautical Twilight 6:11 AM EST 6:58 PM EST
Astronomical Twilight 5:45 AM EST 7:25 PM EST
Moon 6:45 PM EST (1/16) 7:05 AM EST (1/16)
Length of Visible Light 11h 53m
Length of Day
11h 06m
Full, 100% of the Moon is Illuminated
Jan 16
Full
Jan 24
Last Quarter
Jan 30
New
Feb 6
First Quarter
Feb 14
Full

Hourly Weather History & Observations

Time (EST) Temp. Dew Point Humidity Pressure Visibility Wind Dir Wind Speed Gust Speed Precip Events Conditions
6:00 AM 75.2 °F 69.8 °F 83% 29.98 in 6.2 mi NE 12.7 mph - N/A   Mostly Cloudy
7:00 AM 75 °F 69 °F 75% 29.99 in 6 mi NNE 11.5 mph - - Rain Light Rain Showers
7:00 AM 75.2 °F 68.0 °F 78% - 6.2 mi NNE 11.5 mph - N/A Rain Light Rain Showers
8:00 AM 77.0 °F 69.8 °F 78% 29.98 in 6.2 mi NE 13.8 mph - N/A   Overcast
9:00 AM 77.0 °F 69.8 °F 78% 30.01 in 6.2 mi NNE 12.7 mph - N/A   Mostly Cloudy
10:00 AM 77.0 °F 68.0 °F 74% 30.04 in 6.2 mi NNE 12.7 mph - N/A   Scattered Clouds
11:00 AM 78.8 °F 68.0 °F 69% 30.04 in 6.2 mi NNE 12.7 mph - N/A   Partly Cloudy
12:00 PM 78.8 °F 66.2 °F 65% 30.01 in 6.2 mi NNE 13.8 mph - N/A   Partly Cloudy
1:00 PM 78 °F 63 °F 51% 30.01 in 6 mi NNE 13.8 mph - -   Partly Cloudy
1:00 PM 78.8 °F 62.6 °F 57% 30.01 in 6.2 mi NNE 13.8 mph - N/A   Partly Cloudy
2:00 PM 78.8 °F 62.6 °F 57% 29.98 in 6.2 mi NNE 12.7 mph - N/A   Partly Cloudy
3:00 PM 77.0 °F 62.6 °F 61% 29.98 in 6.2 mi NE 12.7 mph - N/A   Partly Cloudy
4:00 PM 78.8 °F 64.4 °F 61% 29.98 in 6.2 mi NE 12.7 mph - N/A   Scattered Clouds
5:00 PM 77.0 °F 64.4 °F 65% 29.98 in 6.2 mi NNE 11.5 mph - N/A   Mostly Cloudy
6:00 PM 77.0 °F 64.4 °F 65% 29.98 in 6.2 mi NE 11.5 mph - N/A   Scattered Clouds
7:00 PM 76 °F 66 °F 63% 30.01 in 6 mi NE 10.4 mph - -   Partly Cloudy
7:00 PM 77.0 °F 66.2 °F 69% 30.01 in 6.2 mi NE 10.4 mph - N/A   Scattered Clouds
8:00 PM 77.0 °F 66.2 °F 69% 30.01 in 6.2 mi NNE 11.5 mph - N/A   Mostly Cloudy
9:00 PM 77.0 °F 66.2 °F 69% 30.04 in 6.2 mi NNE 10.4 mph - N/A   Mostly Cloudy
10:00 PM 77.0 °F 66.2 °F 69% 30.04 in 6.2 mi NNE 11.5 mph - N/A   Mostly Cloudy